sat.trackr.live / text

‹ back to catalog

DMC3-FM3

NORAD 40717 · 2015-032C

PAYLOAD ACTIVE UNKNOWN

§ Identity

Operator
Country
UK
Launch date
2015-07-10
Launch site
SRILR
Launch vehicle
Mass (kg)
RCS (m²)
1.52

Purposes: earth_obs

External: N2YO · Heavens-Above · Gunter

§ Orbital elements

Epoch: 2026-05-25T05:13:03.840384Z

Period
96.92 min
Inclination
97.6600°
Eccentricity
0.0006379
Mean motion
14.85703308 rev/d
Perigee alt
606.9 km
Apogee alt
615.8 km
Semi-major
6,989.5 km
B*
4.9497e-5
RAAN
14.5861°
Arg perigee
123.2149°
Mean anomaly
236.9679°
Rev number
58,650

§ Raw data

DMC3-FM31 40717U 15032C   26145.21740556  .00000378  00000+0  49497-4 0  99922 40717  97.6600  14.5861 0006379 123.2149 236.9679 14.85703308586506

JSON: /api/v1/satellites/40717 · /tle

For live sub-satellite position, see the globe view (requires WebGL).

§ Visibility from observer

Set your observer location to see the next 7 days of passes ≥ 10°. The values pass through the URL so the page stays shareable.

No JS? Fill the form by hand. The geolocation button needs JavaScript.

§ Radio — SatNOGS DB

ModeDescriptionDownlinkUplink
FM Mode X (375MHz) 8.213 GHz
BPSK Telemetry 2.237 GHz

2 transmitters · refreshed weekly from db.satnogs.org